Time,TemperatureF,DewpointF,PressureIn,WindDirection,WindDirectionDegrees,WindSpeedMPH,WindSpeedGustMPH,Humidity,HourlyPrecipIn,Conditions,Clouds,dailyrainin,SoftwareType,DateUTC
2013-03-07 00:00:00,26.6,24.6,30.31,ESE,116,2.0,5.0,92,0.00,,,0.00,Wunderground v.1.15,2013-03-07 05:00:00,
2013-03-07 00:10:00,26.5,24.8,30.31,SSE,155,3.0,3.0,93,0.00,,,0.00,Wunderground v.1.15,2013-03-07 05:10:00,
2013-03-07 00:15:00,26.4,24.7,30.32,North,360,2.0,5.0,93,0.00,,,0.00,Wunderground v.1.15,2013-03-07 05:15:00,
2013-03-07 00:20:00,26.4,24.4,30.32,ESE,118,3.0,5.0,92,0.00,,,0.00,Wunderground v.1.15,2013-03-07 05:20:00,
2013-03-07 00:25:00,26.3,24.3,30.32,SW,217,3.0,5.0,92,0.00,,,0.00,Wunderground v.1.15,2013-03-07 05:25:00,
2013-03-07 00:30:00,26.3,24.3,30.32,SSW,192,3.0,3.0,92,0.00,,,0.00,Wunderground v.1.15,2013-03-07 05:30:00,
2013-03-07 00:35:00,26.3,24.3,30.32,SSE,165,3.0,5.0,92,0.00,,,0.00,Wunderground v.1.15,2013-03-07 05:35:00,
2013-03-07 00:40:00,26.3,24.6,30.32,ESE,114,3.0,5.0,93,0.00,,,0.00,Wunderground v.1.15,2013-03-07 05:40:00,
2013-03-07 00:45:00,26.3,24.6,30.32,South,184,3.0,5.0,93,0.00,,,0.00,Wunderground v.1.15,2013-03-07 05:45:00,
2013-03-07 00:55:00,26.2,24.5,30.32,NNW,346,3.0,6.0,93,0.00,,,0.00,Wunderground v.1.15,2013-03-07 05:55:00,
2013-03-07 01:00:00,26.2,24.5,30.32,SSE,161,3.0,5.0,93,0.00,,,0.00,Wunderground v.1.15,2013-03-07 06:00:00,
2013-03-07 01:05:00,26.2,24.5,30.32,SSW,195,4.0,5.0,93,0.00,,,0.00,Wunderground v.1.15,2013-03-07 06:05:00,
2013-03-07 01:10:00,26.2,24.5,30.32,ESE,121,4.0,5.0,93,0.00,,,0.00,Wunderground v.1.15,2013-03-07 06:10:00,
2013-03-07 01:15:00,26.1,24.4,30.31,SW,228,4.0,5.0,93,0.00,,,0.00,Wunderground v.1.15,2013-03-07 06:15:00,
2013-03-07 01:20:00,26.1,24.4,30.31,South,179,3.0,5.0,93,0.00,,,0.00,Wunderground v.1.15,2013-03-07 06:20:00,
2013-03-07 01:25:00,26.0,24.3,30.31,SSW,201,4.0,5.0,93,0.00,,,0.00,Wunderground v.1.15,2013-03-07 06:25:00,
2013-03-07 01:30:00,26.0,24.3,30.31,SSW,194,4.0,5.0,93,0.00,,,0.00,Wunderground v.1.15,2013-03-07 06:30:00,
2013-03-07 01:35:00,25.9,24.2,30.30,SSW,192,4.0,5.0,93,0.00,,,0.00,Wunderground v.1.15,2013-03-07 06:35:00,
2013-03-07 01:45:00,25.8,24.1,30.29,South,186,4.0,5.0,93,0.00,,,0.00,Wunderground v.1.15,2013-03-07 06:45:00,
2013-03-07 01:50:00,25.8,24.1,30.28,SW,218,5.0,5.0,93,0.00,,,0.00,Wunderground v.1.15,2013-03-07 06:50:00,
2013-03-07 01:55:00,25.7,24.0,30.28,NNW,330,6.0,7.0,93,0.00,,,0.00,Wunderground v.1.15,2013-03-07 06:55:00,
2013-03-07 02:00:00,25.6,23.9,30.28,South,182,6.0,6.0,93,0.00,,,0.00,Wunderground v.1.15,2013-03-07 07:00:00,
2013-03-07 02:05:00,25.7,24.0,30.28,South,184,6.0,6.0,93,0.00,,,0.00,Wunderground v.1.15,2013-03-07 07:05:00,
2013-03-07 02:10:00,25.7,24.0,30.29,SSW,202,5.0,7.0,93,0.00,,,0.00,Wunderground v.1.15,2013-03-07 07:10:00,
2013-03-07 02:15:00,25.7,24.0,30.28,SSW,197,5.0,10.0,93,0.00,,,0.00,Wunderground v.1.15,2013-03-07 07:15:00,
2013-03-07 02:25:00,25.8,24.1,30.28,SW,216,6.0,9.0,93,0.00,,,0.00,Wunderground v.1.15,2013-03-07 07:25:00,
2013-03-07 02:30:00,25.9,24.2,30.29,South,180,6.0,6.0,93,0.00,,,0.00,Wunderground v.1.15,2013-03-07 07:30:00,
2013-03-07 02:35:00,25.9,24.2,30.29,SSW,202,5.0,8.0,93,0.00,,,0.00,Wunderground v.1.15,2013-03-07 07:35:00,
2013-03-07 02:40:00,26.0,24.3,30.29,SW,236,6.0,6.0,93,0.00,,,0.00,Wunderground v.1.15,2013-03-07 07:40:00,
2013-03-07 02:45:00,25.9,24.2,30.29,South,180,7.0,7.0,93,0.00,,,0.00,Wunderground v.1.15,2013-03-07 07:45:00,
2013-03-07 02:50:00,26.0,24.3,30.29,SSW,195,6.0,9.0,93,0.00,,,0.00,Wunderground v.1.15,2013-03-07 07:50:00,
2013-03-07 02:55:00,26.0,24.3,30.29,SSW,203,6.0,9.0,93,0.00,,,0.00,Wunderground v.1.15,2013-03-07 07:55:00,
2013-03-07 03:00:00,26.1,24.4,30.30,South,169,6.0,8.0,93,0.00,,,0.00,Wunderground v.1.15,2013-03-07 08:00:00,
2013-03-07 03:10:00,26.1,24.4,30.30,South,188,6.0,7.0,93,0.00,,,0.00,Wunderground v.1.15,2013-03-07 08:10:00,
2013-03-07 03:15:00,26.1,24.4,30.30,SSW,197,6.0,7.0,93,0.00,,,0.00,Wunderground v.1.15,2013-03-07 08:15:00,
2013-03-07 03:20:00,26.2,24.5,30.29,South,187,6.0,6.0,93,0.00,,,0.00,Wunderground v.1.15,2013-03-07 08:20:00,
2013-03-07 03:25:00,26.1,24.4,30.30,South,188,5.0,10.0,93,0.00,,,0.00,Wunderground v.1.15,2013-03-07 08:25:00,
2013-03-07 03:35:00,26.1,24.4,30.29,SSW,202,6.0,8.0,93,0.00,,,0.00,Wunderground v.1.15,2013-03-07 08:35:00,
2013-03-07 03:40:00,26.1,24.4,30.29,SSW,196,5.0,5.0,93,0.00,,,0.00,Wunderground v.1.15,2013-03-07 08:40:00,
2013-03-07 03:45:00,26.1,24.4,30.29,SSW,209,5.0,5.0,93,0.00,,,0.00,Wunderground v.1.15,2013-03-07 08:45:00,
2013-03-07 03:50:00,26.1,24.4,30.30,SSW,205,5.0,7.0,93,0.00,,,0.00,Wunderground v.1.15,2013-03-07 08:50:00,
2013-03-07 03:55:00,26.2,24.5,30.30,SW,214,5.0,7.0,93,0.00,,,0.00,Wunderground v.1.15,2013-03-07 08:55:00,
2013-03-07 04:00:00,26.3,24.3,30.31,NW,319,5.0,7.0,92,0.00,,,0.00,Wunderground v.1.15,2013-03-07 09:00:00,
2013-03-07 04:10:00,26.3,24.3,30.31,South,172,6.0,11.0,92,0.00,,,0.00,Wunderground v.1.15,2013-03-07 09:10:00,
2013-03-07 04:15:00,26.3,24.3,30.32,SSE,167,6.0,11.0,92,0.00,,,0.00,Wunderground v.1.15,2013-03-07 09:15:00,
2013-03-07 04:20:00,26.4,24.4,30.31,South,187,6.0,9.0,92,0.00,,,0.00,Wunderground v.1.15,2013-03-07 09:20:00,
2013-03-07 04:25:00,26.4,24.4,30.31,SSE,158,6.0,9.0,92,0.00,,,0.00,Wunderground v.1.15,2013-03-07 09:25:00,
2013-03-07 04:30:00,26.3,24.3,30.31,SW,235,6.0,6.0,92,0.00,,,0.00,Wunderground v.1.15,2013-03-07 09:30:00,
2013-03-07 04:40:00,26.4,24.4,30.32,SSW,207,6.0,6.0,92,0.00,,,0.00,Wunderground v.1.15,2013-03-07 09:40:00,
2013-03-07 04:45:00,26.4,24.4,30.32,South,188,6.0,8.0,92,0.00,,,0.00,Wunderground v.1.15,2013-03-07 09:45:00,
2013-03-07 04:50:00,26.4,24.4,30.32,SSW,199,6.0,6.0,92,0.00,,,0.00,Wunderground v.1.15,2013-03-07 09:50:00,
2013-03-07 04:55:00,26.4,24.4,30.33,South,187,6.0,6.0,92,0.00,,,0.00,Wunderground v.1.15,2013-03-07 09:55:00,
2013-03-07 05:01:00,26.4,24.4,30.33,South,187,6.0,6.0,92,0.00,,,0.00,Wunderground v.1.15,2013-03-07 10:01:00,
2013-03-07 05:25:00,26.5,24.2,30.34,SSW,211,5.0,10.0,91,0.00,,,0.00,Wunderground v.1.15,2013-03-07 10:25:00,
2013-03-07 05:30:00,26.5,24.2,30.35,WSW,250,5.0,8.0,91,0.00,,,0.00,Wunderground v.1.15,2013-03-07 10:30:00,
2013-03-07 05:35:00,26.5,24.2,30.35,SE,146,6.0,8.0,91,0.00,,,0.00,Wunderground v.1.15,2013-03-07 10:35:00,
2013-03-07 05:40:00,26.4,24.1,30.35,South,182,5.0,5.0,91,0.00,,,0.00,Wunderground v.1.15,2013-03-07 10:40:00,
2013-03-07 05:45:00,26.4,24.1,30.35,South,182,5.0,5.0,91,0.00,,,0.00,Wunderground v.1.15,2013-03-07 10:45:00,
2013-03-07 05:50:00,26.4,24.1,30.36,South,190,5.0,6.0,91,0.00,,,0.00,Wunderground v.1.15,2013-03-07 10:50:00,
2013-03-07 05:55:00,26.4,24.1,30.36,SSW,210,5.0,6.0,91,0.00,,,0.00,Wunderground v.1.15,2013-03-07 10:55:00,
2013-03-07 06:01:00,26.4,24.1,30.37,SSW,197,4.0,7.0,91,0.00,,,0.00,Wunderground v.1.15,2013-03-07 11:01:00,
2013-03-07 06:05:00,26.3,24.0,30.37,South,180,5.0,7.0,91,0.00,,,0.00,Wunderground v.1.15,2013-03-07 11:05:00,
2013-03-07 06:10:00,26.3,24.0,30.37,SSE,155,5.0,7.0,91,0.00,,,0.00,Wunderground v.1.15,2013-03-07 11:10:00,
2013-03-07 06:15:00,26.3,24.0,30.37,SSW,194,5.0,6.0,91,0.00,,,0.00,Wunderground v.1.15,2013-03-07 11:15:00,
2013-03-07 06:20:00,26.3,24.0,30.37,SSW,198,5.0,6.0,91,0.00,,,0.00,Wunderground v.1.15,2013-03-07 11:20:00,
2013-03-07 06:25:00,26.3,24.0,30.37,South,180,4.0,5.0,91,0.00,,,0.00,Wunderground v.1.15,2013-03-07 11:25:00,
2013-03-07 06:30:00,26.3,23.8,30.37,SSW,198,4.0,5.0,90,0.00,,,0.00,Wunderground v.1.15,2013-03-07 11:30:00,
2013-03-07 06:35:00,26.2,23.7,30.37,South,180,5.0,5.0,90,0.00,,,0.00,Wunderground v.1.15,2013-03-07 11:35:00,
2013-03-07 06:40:00,26.2,23.7,30.37,SSE,166,5.0,6.0,90,0.00,,,0.00,Wunderground v.1.15,2013-03-07 11:40:00,
2013-03-07 06:45:00,26.2,23.7,30.37,South,169,4.0,4.0,90,0.00,,,0.00,Wunderground v.1.15,2013-03-07 11:45:00,
2013-03-07 06:50:00,26.2,23.7,30.38,SSW,200,4.0,7.0,90,0.00,,,0.00,Wunderground v.1.15,2013-03-07 11:50:00,
2013-03-07 06:55:00,26.2,23.7,30.37,SSW,209,4.0,7.0,90,0.00,,,0.00,Wunderground v.1.15,2013-03-07 11:55:00,
2013-03-07 07:01:00,26.2,23.4,30.38,South,172,4.0,4.0,89,0.00,,,0.00,Wunderground v.1.15,2013-03-07 12:01:00,
2013-03-07 07:05:00,26.2,23.4,30.38,South,173,4.0,5.0,89,0.00,,,0.00,Wunderground v.1.15,2013-03-07 12:05:00,
2013-03-07 07:10:00,26.2,23.4,30.38,South,176,4.0,6.0,89,0.00,,,0.00,Wunderground v.1.15,2013-03-07 12:10:00,
2013-03-07 07:15:00,26.2,23.4,30.38,South,190,4.0,6.0,89,0.00,,,0.00,Wunderground v.1.15,2013-03-07 12:15:00,
2013-03-07 07:20:00,26.3,23.5,30.38,SSE,161,4.0,5.0,89,0.00,,,0.00,Wunderground v.1.15,2013-03-07 12:20:00,
2013-03-07 07:25:00,26.3,23.5,30.38,WNW,286,3.0,5.0,89,0.00,,,0.00,Wunderground v.1.15,2013-03-07 12:25:00,
2013-03-07 07:30:00,26.4,23.6,30.39,WSW,247,3.0,5.0,89,0.00,,,0.00,Wunderground v.1.15,2013-03-07 12:30:00,
2013-03-07 07:35:00,26.5,23.4,30.39,South,189,4.0,5.0,88,0.00,,,0.00,Wunderground v.1.15,2013-03-07 12:35:00,
2013-03-07 07:40:00,26.5,23.4,30.39,SSW,197,4.0,5.0,88,0.00,,,0.00,Wunderground v.1.15,2013-03-07 12:40:00,
2013-03-07 07:45:00,26.6,23.5,30.39,SSE,167,4.0,6.0,88,0.00,,,0.00,Wunderground v.1.15,2013-03-07 12:45:00,
2013-03-07 07:50:00,26.6,23.5,30.39,South,178,4.0,6.0,88,0.00,,,0.00,Wunderground v.1.15,2013-03-07 12:50:00,
2013-03-07 07:55:00,26.7,23.6,30.38,SSE,166,4.0,7.0,88,0.00,,,0.00,Wunderground v.1.15,2013-03-07 12:55:00,
2013-03-07 08:00:00,26.7,23.4,30.39,SSW,205,4.0,4.0,87,0.00,,,0.00,Wunderground v.1.15,2013-03-07 13:00:00,
2013-03-07 08:05:00,26.8,23.4,30.39,SW,236,4.0,5.0,87,0.00,,,0.00,Wunderground v.1.15,2013-03-07 13:05:00,
2013-03-07 08:15:00,26.9,23.5,30.40,SSE,149,5.0,6.0,87,0.00,,,0.00,Wunderground v.1.15,2013-03-07 13:15:00,
2013-03-07 08:20:00,26.9,23.5,30.40,South,189,5.0,9.0,87,0.00,,,0.00,Wunderground v.1.15,2013-03-07 13:20:00,
2013-03-07 08:25:00,27.0,23.6,30.40,SSW,204,4.0,9.0,87,0.00,,,0.00,Wunderground v.1.15,2013-03-07 13:25:00,
2013-03-07 08:30:00,27.0,23.6,30.40,SSW,195,4.0,5.0,87,0.00,,,0.00,Wunderground v.1.15,2013-03-07 13:30:00,
2013-03-07 08:35:00,27.0,23.6,30.40,SSW,200,5.0,5.0,87,0.00,,,0.00,Wunderground v.1.15,2013-03-07 13:35:00,
2013-03-07 08:45:00,27.0,23.6,30.41,SW,225,5.0,7.0,87,0.00,,,0.00,Wunderground v.1.15,2013-03-07 13:45:00,
2013-03-07 08:55:00,27.6,24.2,30.41,SW,221,4.0,5.0,87,0.00,,,0.00,Wunderground v.1.15,2013-03-07 13:55:00,
2013-03-07 09:01:00,27.9,24.0,30.41,SSW,194,5.0,5.0,85,0.00,,,0.00,Wunderground v.1.15,2013-03-07 14:01:00,
2013-03-07 09:05:00,28.0,24.1,30.41,SSW,207,5.0,5.0,85,0.00,,,0.00,Wunderground v.1.15,2013-03-07 14:05:00,
2013-03-07 09:10:00,28.4,24.2,30.42,South,170,5.0,5.0,84,0.00,,,0.00,Wunderground v.1.15,2013-03-07 14:10:00,
2013-03-07 09:15:00,28.8,24.6,30.42,South,179,5.0,5.0,84,0.00,,,0.00,Wunderground v.1.15,2013-03-07 14:15:00,
2013-03-07 09:25:00,29.6,24.8,30.42,South,183,5.0,5.0,82,0.00,,,0.00,Wunderground v.1.15,2013-03-07 14:25:00,
2013-03-07 09:30:00,29.6,24.5,30.41,South,191,5.0,5.0,81,0.00,,,0.00,Wunderground v.1.15,2013-03-07 14:30:00,
2013-03-07 09:35:00,29.7,24.9,30.41,South,169,5.0,5.0,82,0.00,,,0.00,Wunderground v.1.15,2013-03-07 14:35:00,
2013-03-07 09:40:00,29.8,25.0,30.41,South,170,4.0,4.0,82,0.00,,,0.00,Wunderground v.1.15,2013-03-07 14:40:00,
2013-03-07 09:50:00,30.6,25.5,30.41,South,173,4.0,5.0,81,0.00,,,0.00,Wunderground v.1.15,2013-03-07 14:50:00,
2013-03-07 09:55:00,30.7,25.3,30.41,East,92,4.0,5.0,80,0.00,,,0.00,Wunderground v.1.15,2013-03-07 14:55:00,
2013-03-07 10:00:00,30.6,25.2,30.41,ENE,68,5.0,5.0,80,0.00,,,0.00,Wunderground v.1.15,2013-03-07 15:00:00,
2013-03-07 10:05:00,30.3,24.9,30.41,South,184,5.0,6.0,80,0.00,,,0.00,Wunderground v.1.15,2013-03-07 15:05:00,
2013-03-07 10:10:00,30.5,25.4,30.41,NNW,343,5.0,5.0,81,0.00,,,0.00,Wunderground v.1.15,2013-03-07 15:10:00,
2013-03-07 10:15:00,30.5,25.1,30.41,South,178,5.0,5.0,80,0.00,,,0.00,Wunderground v.1.15,2013-03-07 15:15:00,
2013-03-07 10:20:00,30.6,25.5,30.41,South,170,5.0,6.0,81,0.00,,,0.00,Wunderground v.1.15,2013-03-07 15:20:00,
2013-03-07 10:25:00,30.9,25.5,30.40,SSW,206,5.0,7.0,80,0.00,,,0.00,Wunderground v.1.15,2013-03-07 15:25:00,
2013-03-07 10:30:00,31.4,25.6,30.39,South,191,5.0,7.0,79,0.00,,,0.00,Wunderground v.1.15,2013-03-07 15:30:00,
2013-03-07 10:40:00,31.8,26.3,30.40,South,176,4.0,5.0,80,0.00,,,0.00,Wunderground v.1.15,2013-03-07 15:40:00,
2013-03-07 10:45:00,32.2,26.1,30.40,SW,214,4.0,5.0,78,0.00,,,0.00,Wunderground v.1.15,2013-03-07 15:45:00,
2013-03-07 10:50:00,32.0,25.9,30.40,South,176,4.0,4.0,78,0.00,,,0.00,Wunderground v.1.15,2013-03-07 15:50:00,
2013-03-07 10:55:00,31.4,25.3,30.39,South,190,5.0,5.0,78,0.00,,,0.00,Wunderground v.1.15,2013-03-07 15:55:00,
2013-03-07 11:01:00,31.4,25.6,30.40,South,175,5.0,5.0,79,0.00,,,0.00,Wunderground v.1.15,2013-03-07 16:01:00,
2013-03-07 11:05:00,31.9,26.1,30.39,South,183,4.0,5.0,79,0.00,,,0.00,Wunderground v.1.15,2013-03-07 16:05:00,
2013-03-07 11:10:00,32.7,26.6,30.40,SSW,209,5.0,7.0,78,0.00,,,0.00,Wunderground v.1.15,2013-03-07 16:10:00,
2013-03-07 11:20:00,33.4,26.6,30.39,South,172,4.0,5.0,76,0.00,,,0.00,Wunderground v.1.15,2013-03-07 16:20:00,
2013-03-07 11:25:00,34.1,27.3,30.39,South,175,4.0,5.0,76,0.00,,,0.00,Wunderground v.1.15,2013-03-07 16:25:00,
2013-03-07 11:30:00,35.0,27.9,30.39,SSW,196,5.0,6.0,75,0.00,,,0.00,Wunderground v.1.15,2013-03-07 16:30:00,
2013-03-07 11:35:00,35.2,27.4,30.39,South,186,5.0,5.0,73,0.00,,,0.00,Wunderground v.1.15,2013-03-07 16:35:00,
2013-03-07 11:40:00,35.6,27.8,30.39,South,179,5.0,7.0,73,0.00,,,0.00,Wunderground v.1.15,2013-03-07 16:40:00,
2013-03-07 11:45:00,36.0,27.8,30.39,South,185,5.0,5.0,72,0.00,,,0.00,Wunderground v.1.15,2013-03-07 16:45:00,
2013-03-07 11:50:00,36.2,28.0,30.39,SSE,152,5.0,5.0,72,0.00,,,0.00,Wunderground v.1.15,2013-03-07 16:50:00,
2013-03-07 11:55:00,36.3,27.8,30.39,South,169,5.0,5.0,71,0.00,,,0.00,Wunderground v.1.15,2013-03-07 16:55:00,
2013-03-07 12:01:00,36.7,28.2,30.39,SSE,161,4.0,4.0,71,0.00,,,0.00,Wunderground v.1.15,2013-03-07 17:01:00,
2013-03-07 12:10:00,37.4,28.5,30.39,SW,219,4.0,4.0,70,0.00,,,0.00,Wunderground v.1.15,2013-03-07 17:10:00,
2013-03-07 12:20:00,37.9,28.6,30.39,South,189,4.0,6.0,69,0.00,,,0.00,Wunderground v.1.15,2013-03-07 17:20:00,
2013-03-07 12:25:00,37.8,28.5,30.39,South,186,4.0,6.0,69,0.00,,,0.00,Wunderground v.1.15,2013-03-07 17:25:00,
2013-03-07 12:35:00,37.9,29.0,30.39,SSW,194,5.0,7.0,70,0.00,,,0.00,Wunderground v.1.15,2013-03-07 17:35:00,
2013-03-07 12:40:00,38.2,28.6,30.39,South,178,4.0,5.0,68,0.00,,,0.00,Wunderground v.1.15,2013-03-07 17:40:00,
2013-03-07 12:45:00,38.5,28.9,30.39,South,178,4.0,5.0,68,0.00,,,0.00,Wunderground v.1.15,2013-03-07 17:45:00,
2013-03-07 12:50:00,38.9,29.2,30.38,South,179,4.0,5.0,68,0.00,,,0.00,Wunderground v.1.15,2013-03-07 17:50:00,
2013-03-07 12:55:00,39.1,29.1,30.38,NE,50,4.0,5.0,67,0.00,,,0.00,Wunderground v.1.15,2013-03-07 17:55:00,
2013-03-07 13:00:00,39.6,29.9,30.38,ESE,115,4.0,4.0,68,0.00,,,0.00,Wunderground v.1.15,2013-03-07 18:00:00,
2013-03-07 13:10:00,40.4,29.6,30.37,SSE,156,3.0,5.0,65,0.00,,,0.00,Wunderground v.1.15,2013-03-07 18:10:00,
2013-03-07 13:15:00,40.9,30.0,30.37,SSW,211,4.0,5.0,65,0.00,,,0.00,Wunderground v.1.15,2013-03-07 18:15:00,
2013-03-07 13:25:00,40.5,29.7,30.36,SSE,154,4.0,5.0,65,0.00,,,0.00,Wunderground v.1.15,2013-03-07 18:25:00,
2013-03-07 13:30:00,40.6,29.7,30.36,SSW,211,4.0,5.0,65,0.00,,,0.00,Wunderground v.1.15,2013-03-07 18:30:00,
2013-03-07 13:40:00,40.6,29.7,30.35,East,92,4.0,4.0,65,0.00,,,0.00,Wunderground v.1.15,2013-03-07 18:40:00,
2013-03-07 13:45:00,40.6,29.7,30.35,South,170,4.0,7.0,65,0.00,,,0.00,Wunderground v.1.15,2013-03-07 18:45:00,
2013-03-07 13:50:00,40.6,29.7,30.36,SE,146,5.0,6.0,65,0.00,,,0.00,Wunderground v.1.15,2013-03-07 18:50:00,
2013-03-07 13:55:00,40.4,29.6,30.35,South,182,5.0,6.0,65,0.00,,,0.00,Wunderground v.1.15,2013-03-07 18:55:00,
2013-03-07 14:00:00,40.7,29.8,30.35,SSE,167,4.0,7.0,65,0.00,,,0.00,Wunderground v.1.15,2013-03-07 19:00:00,
2013-03-07 14:05:00,40.7,29.5,30.35,SSW,192,4.0,7.0,64,0.00,,,0.00,Wunderground v.1.15,2013-03-07 19:05:00,
2013-03-07 14:10:00,40.3,29.5,30.35,SSE,165,5.0,7.0,65,0.00,,,0.00,Wunderground v.1.15,2013-03-07 19:10:00,
2013-03-07 14:15:00,40.4,29.6,30.35,NNW,343,5.0,7.0,65,0.00,,,0.00,Wunderground v.1.15,2013-03-07 19:15:00,
2013-03-07 14:20:00,40.4,29.2,30.35,North,5,5.0,5.0,64,0.00,,,0.00,Wunderground v.1.15,2013-03-07 19:20:00,
2013-03-07 14:30:00,40.4,29.6,30.35,South,190,4.0,5.0,65,0.00,,,0.00,Wunderground v.1.15,2013-03-07 19:30:00,
2013-03-07 14:40:00,40.6,29.7,30.35,South,186,4.0,5.0,65,0.00,,,0.00,Wunderground v.1.15,2013-03-07 19:40:00,
2013-03-07 14:45:00,40.7,29.5,30.35,SSE,165,5.0,5.0,64,0.00,,,0.00,Wunderground v.1.15,2013-03-07 19:45:00,
2013-03-07 14:50:00,40.6,29.4,30.35,SSW,209,5.0,7.0,64,0.00,,,0.00,Wunderground v.1.15,2013-03-07 19:50:00,
2013-03-07 14:55:00,40.9,30.0,30.35,South,184,4.0,7.0,65,0.00,,,0.00,Wunderground v.1.15,2013-03-07 19:55:00,
2013-03-07 15:00:00,40.9,29.7,30.35,West,267,4.0,5.0,64,0.00,,,0.00,Wunderground v.1.15,2013-03-07 20:00:00,
2013-03-07 15:05:00,40.9,30.0,30.35,SW,235,4.0,5.0,65,0.00,,,0.00,Wunderground v.1.15,2013-03-07 20:05:00,
2013-03-07 15:10:00,41.0,29.7,30.35,South,190,4.0,4.0,64,0.00,,,0.00,Wunderground v.1.15,2013-03-07 20:10:00,
2013-03-07 15:15:00,40.8,29.6,30.35,SW,225,4.0,5.0,64,0.00,,,0.00,Wunderground v.1.15,2013-03-07 20:15:00,
2013-03-07 15:20:00,40.3,29.5,30.35,South,179,5.0,5.0,65,0.00,,,0.00,Wunderground v.1.15,2013-03-07 20:20:00,
2013-03-07 15:25:00,40.5,29.7,30.35,SSW,202,4.0,5.0,65,0.00,,,0.00,Wunderground v.1.15,2013-03-07 20:25:00,
2013-03-07 15:30:00,40.5,29.3,30.35,South,172,5.0,5.0,64,0.00,,,0.00,Wunderground v.1.15,2013-03-07 20:30:00,
2013-03-07 15:35:00,40.4,29.6,30.35,SSW,196,4.0,5.0,65,0.00,,,0.00,Wunderground v.1.15,2013-03-07 20:35:00,
2013-03-07 15:40:00,40.4,29.6,30.35,NW,325,4.0,4.0,65,0.00,,,0.00,Wunderground v.1.15,2013-03-07 20:40:00,
2013-03-07 15:45:00,40.5,29.7,30.35,SW,214,3.0,5.0,65,0.00,,,0.00,Wunderground v.1.15,2013-03-07 20:45:00,
2013-03-07 15:50:00,40.8,29.6,30.36,South,187,3.0,3.0,64,0.00,,,0.00,Wunderground v.1.15,2013-03-07 20:50:00,
2013-03-07 15:55:00,40.7,29.5,30.36,South,185,3.0,5.0,64,0.00,,,0.00,Wunderground v.1.15,2013-03-07 20:55:00,
2013-03-07 16:01:00,40.8,29.6,30.36,SW,218,3.0,5.0,64,0.00,,,0.00,Wunderground v.1.15,2013-03-07 21:01:00,
2013-03-07 16:05:00,40.6,29.7,30.36,South,191,4.0,5.0,65,0.00,,,0.00,Wunderground v.1.15,2013-03-07 21:05:00,
2013-03-07 16:10:00,40.9,30.0,30.36,SSW,196,3.0,5.0,65,0.00,,,0.00,Wunderground v.1.15,2013-03-07 21:10:00,
2013-03-07 16:15:00,40.8,29.9,30.36,SW,224,3.0,5.0,65,0.00,,,0.00,Wunderground v.1.15,2013-03-07 21:15:00,
2013-03-07 16:20:00,40.5,29.3,30.36,NE,51,4.0,4.0,64,0.00,,,0.00,Wunderground v.1.15,2013-03-07 21:20:00,
2013-03-07 16:25:00,40.2,29.4,30.36,SSE,157,4.0,7.0,65,0.00,,,0.00,Wunderground v.1.15,2013-03-07 21:25:00,
2013-03-07 16:30:00,40.2,29.4,30.36,South,182,4.0,4.0,65,0.00,,,0.00,Wunderground v.1.15,2013-03-07 21:30:00,
2013-03-07 16:35:00,40.1,28.9,30.36,South,174,4.0,5.0,64,0.00,,,0.00,Wunderground v.1.15,2013-03-07 21:35:00,
2013-03-07 16:40:00,39.7,28.5,30.36,South,169,4.0,5.0,64,0.00,,,0.00,Wunderground v.1.15,2013-03-07 21:40:00,
2013-03-07 16:45:00,39.3,28.5,30.36,SSW,213,5.0,5.0,65,0.00,,,0.00,Wunderground v.1.15,2013-03-07 21:45:00,
2013-03-07 16:50:00,38.9,28.5,30.36,South,178,6.0,6.0,66,0.00,,,0.00,Wunderground v.1.15,2013-03-07 21:50:00,
2013-03-07 16:55:00,38.7,28.7,30.36,SSW,207,5.0,6.0,67,0.00,,,0.00,Wunderground v.1.15,2013-03-07 21:55:00,
2013-03-07 17:01:00,38.8,28.8,30.36,SSW,211,5.0,6.0,67,0.00,,,0.00,Wunderground v.1.15,2013-03-07 22:01:00,
2013-03-07 17:05:00,38.8,28.4,30.37,SE,134,4.0,6.0,66,0.00,,,0.00,Wunderground v.1.15,2013-03-07 22:05:00,
2013-03-07 17:10:00,38.4,28.0,30.37,South,171,4.0,5.0,66,0.00,,,0.00,Wunderground v.1.15,2013-03-07 22:10:00,
2013-03-07 17:15:00,37.9,27.9,30.37,South,181,5.0,5.0,67,0.00,,,0.00,Wunderground v.1.15,2013-03-07 22:15:00,
2013-03-07 17:20:00,37.5,27.9,30.37,South,178,5.0,5.0,68,0.00,,,0.00,Wunderground v.1.15,2013-03-07 22:20:00,
2013-03-07 17:25:00,37.2,28.0,30.37,South,176,5.0,5.0,69,0.00,,,0.00,Wunderground v.1.15,2013-03-07 22:25:00,
2013-03-07 17:30:00,36.9,27.7,30.38,NNE,15,5.0,5.0,69,0.00,,,0.00,Wunderground v.1.15,2013-03-07 22:30:00,
2013-03-07 17:35:00,36.6,27.7,30.37,SSW,213,4.0,5.0,70,0.00,,,0.00,Wunderground v.1.15,2013-03-07 22:35:00,
2013-03-07 17:40:00,36.3,27.8,30.37,WSW,253,4.0,5.0,71,0.00,,,0.00,Wunderground v.1.15,2013-03-07 22:40:00,
2013-03-07 17:45:00,36.1,27.6,30.37,South,175,4.0,5.0,71,0.00,,,0.00,Wunderground v.1.15,2013-03-07 22:45:00,
2013-03-07 17:50:00,36.0,27.8,30.37,SSE,153,4.0,4.0,72,0.00,,,0.00,Wunderground v.1.15,2013-03-07 22:50:00,
2013-03-07 17:55:00,35.7,27.6,30.37,South,173,4.0,5.0,72,0.00,,,0.00,Wunderground v.1.15,2013-03-07 22:55:00,
2013-03-07 18:00:00,35.3,27.5,30.37,South,190,3.0,5.0,73,0.00,,,0.00,Wunderground v.1.15,2013-03-07 23:00:00,
2013-03-07 18:05:00,34.9,27.1,30.37,SW,225,4.0,7.0,73,0.00,,,0.00,Wunderground v.1.15,2013-03-07 23:05:00,
2013-03-07 18:10:00,34.3,26.9,30.38,South,177,4.0,4.0,74,0.00,,,0.00,Wunderground v.1.15,2013-03-07 23:10:00,
2013-03-07 18:15:00,33.6,26.8,30.38,South,172,4.0,6.0,76,0.00,,,0.00,Wunderground v.1.15,2013-03-07 23:15:00,
2013-03-07 18:20:00,32.8,26.4,30.38,SSW,199,4.0,4.0,77,0.00,,,0.00,Wunderground v.1.15,2013-03-07 23:20:00,
2013-03-07 18:30:00,31.7,25.9,30.38,South,176,3.0,5.0,79,0.00,,,0.00,Wunderground v.1.15,2013-03-07 23:30:00,
2013-03-07 18:35:00,31.4,25.9,30.38,NNE,29,3.0,5.0,80,0.00,,,0.00,Wunderground v.1.15,2013-03-07 23:35:00,
2013-03-07 18:45:00,30.6,25.8,30.38,South,179,3.0,5.0,82,0.00,,,0.00,Wunderground v.1.15,2013-03-07 23:45:00,
2013-03-07 18:50:00,30.4,25.6,30.38,SSW,194,3.0,5.0,82,0.00,,,0.00,Wunderground v.1.15,2013-03-07 23:50:00,
2013-03-07 18:55:00,30.2,25.7,30.38,South,181,3.0,5.0,83,0.00,,,0.00,Wunderground v.1.15,2013-03-07 23:55:00,
2013-03-07 19:01:00,30.0,25.5,30.39,South,170,3.0,3.0,83,0.00,,,0.00,Wunderground v.1.15,2013-03-08 00:01:00,
2013-03-07 19:05:00,29.8,25.6,30.39,SSE,163,3.0,5.0,84,0.00,,,0.00,Wunderground v.1.15,2013-03-08 00:05:00,
2013-03-07 19:10:00,29.7,25.5,30.39,South,175,3.0,5.0,84,0.00,,,0.00,Wunderground v.1.15,2013-03-08 00:10:00,
2013-03-07 19:15:00,29.5,25.5,30.39,SSW,195,3.0,5.0,85,0.00,,,0.00,Wunderground v.1.15,2013-03-08 00:15:00,
2013-03-07 19:20:00,29.4,25.4,30.39,SSE,163,2.0,5.0,85,0.00,,,0.00,Wunderground v.1.15,2013-03-08 00:20:00,
2013-03-07 19:25:00,29.3,25.4,30.39,South,177,3.0,5.0,85,0.00,,,0.00,Wunderground v.1.15,2013-03-08 00:25:00,
2013-03-07 19:30:00,29.1,25.2,30.40,SSE,166,3.0,3.0,85,0.00,,,0.00,Wunderground v.1.15,2013-03-08 00:30:00,
2013-03-07 19:35:00,29.0,25.3,30.39,South,174,3.0,5.0,86,0.00,,,0.00,Wunderground v.1.15,2013-03-08 00:35:00,
2013-03-07 19:40:00,29.0,25.3,30.40,South,174,2.0,5.0,86,0.00,,,0.00,Wunderground v.1.15,2013-03-08 00:40:00,
2013-03-07 19:45:00,28.9,25.2,30.40,SSE,167,2.0,5.0,86,0.00,,,0.00,Wunderground v.1.15,2013-03-08 00:45:00,
2013-03-07 19:50:00,28.9,25.2,30.40,SSE,167,1.0,5.0,86,0.00,,,0.00,Wunderground v.1.15,2013-03-08 00:50:00,
2013-03-07 19:55:00,28.9,25.5,30.40,SSE,167,1.0,5.0,87,0.00,,,0.00,Wunderground v.1.15,2013-03-08 00:55:00,
2013-03-07 20:00:00,28.8,25.4,30.40,SSE,167,1.0,1.0,87,0.00,,,0.00,Wunderground v.1.15,2013-03-08 01:00:00,
2013-03-07 20:10:00,28.6,25.2,30.40,West,272,1.0,5.0,87,0.00,,,0.00,Wunderground v.1.15,2013-03-08 01:10:00,
2013-03-07 20:15:00,28.5,25.1,30.40,SSE,153,2.0,5.0,87,0.00,,,0.00,Wunderground v.1.15,2013-03-08 01:15:00,
2013-03-07 20:20:00,28.4,25.0,30.41,SSE,160,2.0,5.0,87,0.00,,,0.00,Wunderground v.1.15,2013-03-08 01:20:00,
2013-03-07 20:30:00,28.3,25.2,30.41,South,174,2.0,5.0,88,0.00,,,0.00,Wunderground v.1.15,2013-03-08 01:30:00,
2013-03-07 20:35:00,28.2,25.1,30.41,South,174,2.0,5.0,88,0.00,,,0.00,Wunderground v.1.15,2013-03-08 01:35:00,
2013-03-07 20:45:00,28.0,24.9,30.42,SSW,193,3.0,5.0,88,0.00,,,0.00,Wunderground v.1.15,2013-03-08 01:45:00,
2013-03-07 20:50:00,28.0,24.9,30.42,South,173,2.0,2.0,88,0.00,,,0.00,Wunderground v.1.15,2013-03-08 01:50:00,
2013-03-07 21:01:00,27.9,25.1,30.41,SSW,198,3.0,5.0,89,0.00,,,0.00,Wunderground v.1.15,2013-03-08 02:01:00,
2013-03-07 21:10:00,27.8,25.0,30.42,South,186,2.0,5.0,89,0.00,,,0.00,Wunderground v.1.15,2013-03-08 02:10:00,
2013-03-07 21:15:00,27.8,25.0,30.42,SSE,165,2.0,5.0,89,0.00,,,0.00,Wunderground v.1.15,2013-03-08 02:15:00,
2013-03-07 21:20:00,27.7,24.9,30.42,SSE,165,2.0,2.0,89,0.00,,,0.00,Wunderground v.1.15,2013-03-08 02:20:00,
2013-03-07 21:25:00,27.7,24.9,30.42,SSE,165,2.0,3.0,89,0.00,,,0.00,Wunderground v.1.15,2013-03-08 02:25:00,
2013-03-07 21:30:00,27.6,24.8,30.42,South,185,2.0,5.0,89,0.00,,,0.00,Wunderground v.1.15,2013-03-08 02:30:00,
2013-03-07 21:35:00,27.6,24.8,30.42,West,259,3.0,5.0,89,0.00,,,0.00,Wunderground v.1.15,2013-03-08 02:35:00,
2013-03-07 21:40:00,27.6,24.8,30.42,SSW,205,3.0,3.0,89,0.00,,,0.00,Wunderground v.1.15,2013-03-08 02:40:00,
2013-03-07 21:45:00,27.6,24.8,30.42,South,173,3.0,5.0,89,0.00,,,0.00,Wunderground v.1.15,2013-03-08 02:45:00,
2013-03-07 21:50:00,27.6,24.8,30.42,South,177,3.0,3.0,89,0.00,,,0.00,Wunderground v.1.15,2013-03-08 02:50:00,
2013-03-07 21:55:00,27.6,24.8,30.42,SSW,195,3.0,5.0,89,0.00,,,0.00,Wunderground v.1.15,2013-03-08 02:55:00,
2013-03-07 22:00:00,27.6,24.8,30.42,SSW,194,3.0,5.0,89,0.00,,,0.00,Wunderground v.1.15,2013-03-08 03:00:00,
2013-03-07 22:10:00,27.6,24.8,30.42,South,175,4.0,5.0,89,0.00,,,0.00,Wunderground v.1.15,2013-03-08 03:10:00,
2013-03-07 22:15:00,27.7,24.9,30.42,NNW,327,4.0,5.0,89,0.00,,,0.00,Wunderground v.1.15,2013-03-08 03:15:00,
2013-03-07 22:20:00,27.6,24.8,30.42,SSE,160,4.0,5.0,89,0.00,,,0.00,Wunderground v.1.15,2013-03-08 03:20:00,
2013-03-07 22:25:00,27.6,24.8,30.42,South,173,4.0,5.0,89,0.00,,,0.00,Wunderground v.1.15,2013-03-08 03:25:00,
2013-03-07 22:35:00,27.5,24.7,30.42,SSE,165,3.0,5.0,89,0.00,,,0.00,Wunderground v.1.15,2013-03-08 03:35:00,
2013-03-07 22:40:00,27.5,24.7,30.42,South,176,3.0,3.0,89,0.00,,,0.00,Wunderground v.1.15,2013-03-08 03:40:00,
2013-03-07 22:50:00,27.6,24.8,30.42,WSW,252,3.0,5.0,89,0.00,,,0.00,Wunderground v.1.15,2013-03-08 03:50:00,
2013-03-07 22:55:00,27.6,24.8,30.42,North,360,3.0,5.0,89,0.00,,,0.00,Wunderground v.1.15,2013-03-08 03:55:00,
2013-03-07 23:00:00,27.5,24.7,30.42,SSE,163,3.0,5.0,89,0.00,,,0.00,Wunderground v.1.15,2013-03-08 04:00:00,
2013-03-07 23:05:00,27.4,24.6,30.42,WSW,247,3.0,5.0,89,0.00,,,0.00,Wunderground v.1.15,2013-03-08 04:05:00,
2013-03-07 23:10:00,27.4,24.6,30.42,SSE,150,4.0,4.0,89,0.00,,,0.00,Wunderground v.1.15,2013-03-08 04:10:00,
2013-03-07 23:15:00,27.4,24.6,30.42,SSE,147,4.0,5.0,89,0.00,,,0.00,Wunderground v.1.15,2013-03-08 04:15:00,
2013-03-07 23:20:00,27.4,24.9,30.42,SSE,163,3.0,5.0,90,0.00,,,0.00,Wunderground v.1.15,2013-03-08 04:20:00,
2013-03-07 23:25:00,27.3,24.8,30.42,SSW,209,2.0,5.0,90,0.00,,,0.00,Wunderground v.1.15,2013-03-08 04:25:00,
2013-03-07 23:30:00,27.3,24.8,30.42,South,171,2.0,5.0,90,0.00,,,0.00,Wunderground v.1.15,2013-03-08 04:30:00,
2013-03-07 23:35:00,27.3,24.8,30.42,South,185,2.0,5.0,90,0.00,,,0.00,Wunderground v.1.15,2013-03-08 04:35:00,
2013-03-07 23:40:00,27.2,24.7,30.42,South,180,3.0,3.0,90,0.00,,,0.00,Wunderground v.1.15,2013-03-08 04:40:00,
2013-03-07 23:45:00,27.2,24.7,30.42,ESE,104,2.0,5.0,90,0.00,,,0.00,Wunderground v.1.15,2013-03-08 04:45:00,
2013-03-07 23:55:00,27.2,24.7,30.42,ESE,111,3.0,7.0,90,0.00,,,0.00,Wunderground v.1.15,2013-03-08 04:55:00,